Tracking 23099 objects as of 13-May-2021
HD Live streaming from Space Station
objects crossing your sky now

SL-6 R/B(2)

Track SL-6 R/B(2) now!


NORAD ID: 19810
Int'l Code: 1989-014D
Perigee: 2,377.4 km
Apogee: 36,827.7 km
Inclination: 64.2 °
Period: 694.3 minutes
Semi major axis: 25973 km
RCS: 8.2817 m2 (large)
Launch date: February 15, 1989
Source: Commonwealth of Independent States (former USSR) (CIS)
Launch site: TYURATAM MISSILE AND SPACE COMPLEX (TTMTR)

Note: This is a ROCKET BODY
aabbcc
Your satellite tracking list
Your tracking list is empty




NASA's NSSDC Master Catalog

Two Line Element Set (TLE):
1 19810U 89014D   21126.82386404 -.00000514  00000-0  00000-0 0  9999
2 19810  64.1877 248.0901 6631817 267.2448  21.2206  2.07399221243987
Source of the keplerian elements: AFSPC